Starlink 33558

operational
NORAD ID: 63643 Int'l Des: 2025-083 Owner: SPXS Country: US Constellation: starlink
LEOCIRCULAR

About Starlink 33558

Description loading...

Live Position

Loading 3D Globe...

Upcoming Passes

Altitude History

Altitude vs Time

uPlot chart will show altitude changes over time

Two-Line Element Set

1 63643U 25083K 25351.39248281 .00009318 00000-0 34770-3 0 9998
2 63643 43.0037 109.7187 0001789 281.5367 78.5284 15.27580056 37486
Epoch: Dec 17, 2025 • Age: 16 hours

Current Status

Altitude 482.0 km
Velocity 7.63 km/s
Sub-Earth Point 7.55°N, 9.83°E
Launch Date Apr 25, 2025
Age 0.6 years
Type internet

Technical Details

Classification Payload
Mass 575.00 kg
Dry Mass 530.00 kg
Total Mass 575.00 kg
Length 0.30 m
Diameter 4.10 m
Span 29.00 m
Shape Box + pan
Manufacturer SPXS
Bus Type Starlink V2MO
Phase Status In Orbit
Owner/State SPXS/US

Large Constellations

Loading constellations...